Overview Statistics Trail Chart Weather Telemetry Raw packets
 

This is the latest recevied weather packets stored in our database for station/object SV4JYD-13. If no packets are shown the sender has not sent any weather packets the latest 10 day(s).

<< 12 13 14 15 16 17 18 >>
Time Temp. Humidity Pressure Rain* Wind** Luminosity Snow
1777724537 15° C 40% 1021 hPa 0 mm - - -
1777723636 15° C 39% 1021 hPa 0 mm - - -
1777722736 15° C 40% 1021 hPa 0 mm - - -
1777721836 15° C 41% 1021 hPa 0 mm - - -
1777720935 15° C 43% 1021 hPa 0 mm - - -
1777720035 14.44° C 50% 1021 hPa 0 mm - - -
1777719135 13.89° C 49% 1021 hPa 0 mm - - -
1777718234 13.33° C 44% 1022 hPa 0 mm - - -
1777717334 13.89° C 48% 1022 hPa 0 mm - - -
1777716434 14.44° C 56% 1022 hPa 0 mm - - -
1777715531 14.44° C 57% 1022 hPa 0 mm - - -
1777714631 12.78° C 65% 1022 hPa 0 mm - - -
1777713730 13.33° C 75% 1022 hPa 0 mm - - -
1777712830 13.89° C 10% - 0 mm - - -
1777711930 14.44° C 10% - 0 mm - - -
1777711030 8.33° C 82% 1022 hPa 0 mm - - -
1777710129 8.89° C 82% 1022 hPa 0 mm - - -
1777709229 9.44° C 82% 1022 hPa 0 mm - - -
1777708329 9.44° C 77% 1022 hPa 0 mm - - -
1777707428 9.44° C 78% 1022 hPa 0 mm - - -
1777706528 9.44° C 79% 1022 hPa 0 mm - - -
1777705628 10° C 82% 1022 hPa 0 mm - - -
1777704728 9.44° C 85% 1022 hPa 0 mm - - -
1777703827 10° C 81% 1022 hPa 0 mm - - -
1777702927 10.56° C 79% 1022 hPa 0 mm - - -

* Rain latest hour (hover to see other rain measurements)
** Current wind speed in m/s (hover to see current wind gust speed)